APZ706 RKPK-RKSS

Flight info

Callsign APZ706
Flight time 0h 32m
Altitude 22000
Route OPONO3 KALOD Y782 BITUX Z53 BASEM Y685 GUKDO GUKDO2T
Aircraft B738/M-SDE2E3FGHIRWXY/LB1

Departure

Time 2026-05-05 10:27
Airport Gimhae International Airport (RKPK)

Arrival

Time 2026-05-05 10:59
Airport Gimpo International Airport (RKSS)
Time Latitude Longitude Altitude Speed Heading
2026-05-05 10:26 35.25897 128.83294 5593 ft 250 kts 313°
2026-05-05 10:27 35.27507 128.82257 6077 ft 273 kts 346°
2026-05-05 10:27 35.29412 128.81872 6802 ft 283 kts 349°
2026-05-05 10:27 35.31378 128.81506 7608 ft 286 kts 349°
2026-05-05 10:27 35.33333 128.81128 8400 ft 291 kts 348°
2026-05-05 10:28 35.35350 128.80715 9144 ft 296 kts 348°
2026-05-05 10:28 35.37400 128.80279 9965 ft 300 kts 348°
2026-05-05 10:28 35.39481 128.79824 10570 ft 311 kts 348°
2026-05-05 10:28 35.41704 128.79329 10752 ft 336 kts 348°
2026-05-05 10:29 35.44062 128.78800 10924 ft 359 kts 347°
2026-05-05 10:29 35.46584 128.78233 11231 ft 376 kts 348°
2026-05-05 10:29 35.49185 128.77631 11825 ft 382 kts 345°
2026-05-05 10:29 35.51715 128.76656 12564 ft 381 kts 334°
2026-05-05 10:30 35.54120 128.75267 13291 ft 383 kts 332°
2026-05-05 10:30 35.56504 128.73815 13846 ft 390 kts 331°
2026-05-05 10:30 35.58950 128.72316 14483 ft 393 kts 332°
2026-05-05 10:30 35.61402 128.70825 15223 ft 393 kts 331°
2026-05-05 10:31 35.63873 128.69339 15835 ft 396 kts 332°
2026-05-05 10:31 35.66379 128.67837 16365 ft 402 kts 332°
2026-05-05 10:31 35.68865 128.66352 17042 ft 402 kts 332°
2026-05-05 10:31 35.71391 128.64846 17707 ft 404 kts 332°
2026-05-05 10:32 35.73934 128.63327 18278 ft 408 kts 332°
2026-05-05 10:32 35.76512 128.61787 18794 ft 411 kts 332°
2026-05-05 10:32 35.79095 128.60235 19327 ft 413 kts 330°
2026-05-05 10:32 35.81551 128.58387 19837 ft 414 kts 321°
2026-05-05 10:33 35.83700 128.56093 20330 ft 415 kts 314°
2026-05-05 10:33 35.85776 128.53608 20810 ft 418 kts 313°
2026-05-05 10:33 35.87858 128.51079 21287 ft 421 kts 313°
2026-05-05 10:33 35.89959 128.48528 21750 ft 424 kts 313°
2026-05-05 10:34 35.92072 128.45976 22026 ft 427 kts 314°
2026-05-05 10:34 35.94221 128.43393 22031 ft 434 kts 314°
2026-05-05 10:34 35.94927 128.42547 22035 ft 436 kts 314°
2026-05-05 10:34 35.96668 128.40466 22046 ft 438 kts 314°
2026-05-05 10:35 35.98862 128.37848 22028 ft 436 kts 314°
2026-05-05 10:35 36.01047 128.35242 22035 ft 435 kts 314°
2026-05-05 10:35 36.03227 128.32639 22032 ft 435 kts 314°
2026-05-05 10:35 36.05377 128.30068 22039 ft 434 kts 314°
2026-05-05 10:36 36.07545 128.27473 22063 ft 435 kts 314°
2026-05-05 10:36 36.09727 128.24859 22036 ft 436 kts 314°
2026-05-05 10:36 36.11903 128.22251 22038 ft 436 kts 314°
2026-05-05 10:36 36.14090 128.19626 22048 ft 437 kts 314°
2026-05-05 10:37 36.16253 128.17027 22043 ft 437 kts 314°
2026-05-05 10:37 36.18438 128.14401 22039 ft 438 kts 314°
2026-05-05 10:37 36.20624 128.11771 22033 ft 439 kts 314°
2026-05-05 10:37 36.22822 128.09125 22036 ft 439 kts 314°
2026-05-05 10:38 36.25026 128.06498 22032 ft 439 kts 317°
2026-05-05 10:38 36.27493 128.04330 22026 ft 441 kts 330°
2026-05-05 10:38 36.30314 128.02826 22039 ft 443 kts 341°
2026-05-05 10:38 36.33345 128.02061 22035 ft 444 kts 352°
2026-05-05 10:39 36.36427 128.01668 22034 ft 445 kts 353°
2026-05-05 10:39 36.39514 128.01310 22032 ft 445 kts 353°
2026-05-05 10:39 36.41556 128.01067 22028 ft 445 kts 353°
2026-05-05 10:39 36.45642 128.00546 22030 ft 444 kts 353°
2026-05-05 10:40 36.48722 128.00127 22024 ft 444 kts 352°
2026-05-05 10:40 36.50772 127.99843 22031 ft 444 kts 352°
2026-05-05 10:40 36.53847 127.99414 22033 ft 444 kts 352°
2026-05-05 10:40 36.57925 127.98850 22034 ft 444 kts 353°
2026-05-05 10:41 36.59969 127.98574 22033 ft 444 kts 353°
2026-05-05 10:41 36.63042 127.98164 22031 ft 444 kts 353°
2026-05-05 10:41 36.66103 127.97758 21986 ft 436 kts 353°
2026-05-05 10:41 36.69076 127.97362 21865 ft 421 kts 353°
2026-05-05 10:42 36.74693 127.96608 21442 ft 399 kts 353°
2026-05-05 10:42 36.77461 127.96235 20886 ft 398 kts 353°
2026-05-05 10:42 36.80217 127.95864 20351 ft 398 kts 353°
2026-05-05 10:43 36.82868 127.95123 19900 ft 393 kts 336°
2026-05-05 10:43 36.85205 127.93395 19460 ft 389 kts 320°
2026-05-05 10:43 36.87022 127.90909 18986 ft 386 kts 305°
2026-05-05 10:43 36.88530 127.88138 18511 ft 385 kts 303°
2026-05-05 10:44 36.89999 127.85389 17984 ft 384 kts 303°
2026-05-05 10:44 36.91506 127.82636 17564 ft 380 kts 304°
2026-05-05 10:44 36.93007 127.79939 17150 ft 376 kts 304°
2026-05-05 10:44 36.94506 127.77276 16698 ft 373 kts 304°
2026-05-05 10:45 36.96001 127.74634 16220 ft 371 kts 304°
2026-05-05 10:45 36.97492 127.71999 15791 ft 368 kts 304°
2026-05-05 10:45 36.98950 127.69418 15378 ft 365 kts 304°
2026-05-05 10:45 37.00410 127.66830 14956 ft 363 kts 304°
2026-05-05 10:46 37.01857 127.64259 14541 ft 360 kts 304°
2026-05-05 10:46 37.03242 127.61642 14138 ft 357 kts 301°
2026-05-05 10:46 37.04557 127.59005 13740 ft 355 kts 300°
2026-05-05 10:46 37.05827 127.56417 13302 ft 352 kts 300°
2026-05-05 10:47 37.07100 127.53818 12884 ft 348 kts 300°
2026-05-05 10:47 37.08365 127.51242 12483 ft 345 kts 300°
2026-05-05 10:47 37.09625 127.48686 12061 ft 342 kts 300°
2026-05-05 10:47 37.10874 127.46156 11643 ft 340 kts 300°
2026-05-05 10:48 37.12118 127.43642 11264 ft 337 kts 300°
2026-05-05 10:48 37.13348 127.41154 10878 ft 334 kts 300°
2026-05-05 10:48 37.14554 127.38713 10497 ft 332 kts 300°
2026-05-05 10:48 37.15772 127.36248 10129 ft 329 kts 300°
2026-05-05 10:49 37.16944 127.33878 10023 ft 310 kts 300°
2026-05-05 10:49 37.18050 127.31640 9899 ft 292 kts 300°
2026-05-05 10:49 37.19078 127.29557 9786 ft 276 kts 299°
2026-05-05 10:49 37.20064 127.27557 9674 ft 262 kts 299°
2026-05-05 10:50 37.21007 127.25639 9368 ft 256 kts 299°
2026-05-05 10:50 37.21947 127.23728 8991 ft 258 kts 299°
2026-05-05 10:50 37.22883 127.21824 8788 ft 255 kts 299°
2026-05-05 10:50 37.23775 127.20010 8535 ft 253 kts 299°
2026-05-05 10:51 37.24701 127.18126 8266 ft 253 kts 299°
2026-05-05 10:51 37.25694 127.16310 8004 ft 254 kts 308°
2026-05-05 10:51 37.26944 127.14711 7746 ft 255 kts 313°
2026-05-05 10:51 37.28216 127.13200 7440 ft 250 kts 313°
2026-05-05 10:52 37.29463 127.11703 7013 ft 251 kts 313°
2026-05-05 10:52 37.30718 127.10170 6648 ft 249 kts 312°
2026-05-05 10:52 37.31949 127.08651 6251 ft 248 kts 312°
2026-05-05 10:52 37.33184 127.07119 5831 ft 248 kts 312°
2026-05-05 10:53 37.34395 127.05615 5452 ft 246 kts 311°
2026-05-05 10:53 37.35615 127.04097 5008 ft 246 kts 311°
2026-05-05 10:53 37.36835 127.02576 4600 ft 246 kts 311°
2026-05-05 10:53 37.38030 127.01089 4464 ft 234 kts 311°
2026-05-05 10:54 37.39167 126.99689 4287 ft 225 kts 313°
2026-05-05 10:54 37.40301 126.98362 4039 ft 220 kts 312°
2026-05-05 10:54 37.41382 126.97041 3760 ft 217 kts 310°
2026-05-05 10:54 37.42447 126.95706 3488 ft 214 kts 310°
2026-05-05 10:55 37.43494 126.94381 3185 ft 212 kts 309°
2026-05-05 10:55 37.44524 126.93080 2924 ft 208 kts 309°
2026-05-05 10:55 37.45534 126.91801 2642 ft 201 kts 309°
2026-05-05 10:55 37.46491 126.90596 2402 ft 186 kts 309°
2026-05-05 10:56 37.47379 126.89476 2138 ft 172 kts 309°
2026-05-05 10:56 37.48155 126.88496 1905 ft 162 kts 309°
2026-05-05 10:56 37.48941 126.87502 1706 ft 159 kts 309°
2026-05-05 10:56 37.49726 126.86507 1490 ft 161 kts 310°
2026-05-05 10:57 37.50514 126.85512 1266 ft 160 kts 310°
2026-05-05 10:57 37.51289 126.84534 1066 ft 158 kts 311°
2026-05-05 10:57 37.52071 126.83545 826 ft 159 kts 313°
2026-05-05 10:57 37.52851 126.82573 631 ft 157 kts 313°
2026-05-05 10:58 37.53613 126.81596 407 ft 155 kts 311°
2026-05-05 10:58 37.54363 126.80658 215 ft 153 kts 312°
2026-05-05 10:58 37.55108 126.79720 62 ft 148 kts 311°
2026-05-05 10:58 37.55708 126.78963 63 ft 92 kts 315°
2026-05-05 10:59 37.56009 126.78584 66 ft 32 kts 315°
2026-05-05 10:59 37.56167 126.78418 64 ft 29 kts 332°
2026-05-05 10:59 37.56351 126.78344 63 ft 27 kts 346°
2026-05-05 10:59 37.56520 126.78396 62 ft 25 kts 43°
2026-05-05 11:00 37.56638 126.78545 57 ft 22 kts 45°
2026-05-05 11:00 37.56613 126.78701 66 ft 21 kts 135°
2026-05-05 11:00 37.56508 126.78829 59 ft 21 kts 136°
2026-05-05 11:00 37.56407 126.78955 59 ft 20 kts 134°
2026-05-05 11:01 37.56311 126.79076 66 ft 19 kts 134°
2026-05-05 11:01 37.56217 126.79195 61 ft 19 kts 135°
2026-05-05 11:01 37.56126 126.79309 66 ft 18 kts 135°
2026-05-05 11:01 37.56038 126.79420 59 ft 18 kts 135°
2026-05-05 11:02 37.55956 126.79530 64 ft 17 kts 122°
2026-05-05 11:02 37.55930 126.79671 66 ft 16 kts 99°
2026-05-05 11:02 37.55913 126.79809 66 ft 16 kts 99°
2026-05-05 11:02 37.55896 126.79940 66 ft 13 kts 101°
2026-05-05 11:03 37.55874 126.80026 66 ft 10 kts 72°
2026-05-05 11:03 37.55918 126.80082 64 ft 7 kts 45°
2026-05-05 11:03 37.55937 126.80107 66 ft 0 kts 45°